Location: Montreal
(45.5000°N, 73.5833°W)
Time: 08:24:52
(UTC-04:00)

Tiangong 2 - Pass Details

Date: 11 October 2017
Orbit: 388 x 391 km, 42.8° (Epoch: 21 October)

Event Time Altitude Azimuth Distance (km) Brightness Sun altitude
Exits shadow 04:38:49 14° 121° (ESE) 1,229 4.0 -26.3°
Drops below altitude 10° 04:39:35 10° 110° (ESE) 1,421 4.6 -26.1°
Sets 04:42:08 0° 89° (E) 2,280 6.2 -25.7°
